Time,TemperatureF,DewpointF,PressureIn,WindDirection,WindDirectionDegrees,WindSpeedMPH,WindSpeedGustMPH,Humidity,HourlyPrecipIn,Conditions,Clouds,dailyrainin,SoftwareType,DateUTC
2013-01-06 16:03:00,45.0,33.0,30.08,West,279,7.0,-999.0,63,-99.99,,,-99.99,,2013-01-06 21:03:00,
2013-01-06 16:12:00,45.0,33.0,30.08,West,279,7.0,-999.0,63,-99.99,,,-99.99,,2013-01-06 21:12:00,
2013-01-06 16:22:00,44.0,33.0,30.09,NW,310,7.0,-999.0,66,-99.99,,,-99.99,,2013-01-06 21:22:00,
2013-01-06 16:33:00,43.0,33.0,30.10,WNW,301,9.0,-999.0,68,-99.99,,,-99.99,,2013-01-06 21:33:00,
2013-01-06 16:43:00,43.0,33.0,30.10,WNW,301,9.0,-999.0,68,-99.99,,,-99.99,,2013-01-06 21:43:00,
2013-01-06 16:52:00,43.0,33.0,30.11,WNW,288,10.0,-999.0,68,-99.99,,,-99.99,,2013-01-06 21:52:00,
2013-01-06 17:02:00,42.0,32.0,30.12,NW,325,11.0,-999.0,67,-99.99,,,-99.99,,2013-01-06 22:02:00,
2013-01-06 17:12:00,42.0,32.0,30.12,NW,325,11.0,-999.0,67,-99.99,,,-99.99,,2013-01-06 22:12:00,
2013-01-06 17:22:00,42.0,32.0,30.13,NNW,331,8.0,-999.0,68,-99.99,,,-99.99,,2013-01-06 22:22:00,
2013-01-06 17:33:00,41.0,31.0,30.14,WNW,298,10.0,-999.0,67,-99.99,,,-99.99,,2013-01-06 22:33:00,
2013-01-06 17:43:00,41.0,31.0,30.14,WNW,298,10.0,-999.0,67,-99.99,,,-99.99,,2013-01-06 22:43:00,
2013-01-06 17:52:00,41.0,31.0,30.15,WNW,297,10.0,-999.0,67,-99.99,,,-99.99,,2013-01-06 22:52:00,
2013-01-06 18:02:00,40.0,30.0,30.16,West,273,11.0,-999.0,68,-99.99,,,-99.99,,2013-01-06 23:02:00,
2013-01-06 18:12:00,40.0,30.0,30.16,West,273,11.0,-999.0,68,-99.99,,,-99.99,,2013-01-06 23:12:00,
2013-01-06 18:22:00,40.0,31.0,30.16,WNW,295,9.0,-999.0,69,-99.99,,,-99.99,,2013-01-06 23:22:00,
2013-01-06 18:33:00,39.0,30.0,30.17,WNW,294,7.0,-999.0,70,-99.99,,,-99.99,,2013-01-06 23:33:00,
2013-01-06 18:43:00,39.0,30.0,30.17,WNW,294,7.0,-999.0,70,-99.99,,,-99.99,,2013-01-06 23:43:00,
2013-01-06 18:52:00,39.0,30.0,30.19,WNW,298,7.0,-999.0,70,-99.99,,,-99.99,,2013-01-06 23:52:00,
2013-01-06 19:03:00,39.0,30.0,30.21,NW,304,10.0,-999.0,71,-99.99,,,-99.99,,2013-01-07 00:03:00,
2013-01-06 19:12:00,39.0,30.0,30.21,NW,304,10.0,-999.0,71,-99.99,,,-99.99,,2013-01-07 00:12:00,
2013-01-06 19:23:00,38.0,30.0,30.22,North,360,12.0,-999.0,72,-99.99,,,-99.99,,2013-01-07 00:23:00,
2013-01-06 19:33:00,37.0,29.0,30.22,WNW,294,9.0,-999.0,73,-99.99,,,-99.99,,2013-01-07 00:33:00,
2013-01-06 19:43:00,37.0,29.0,30.22,WNW,294,9.0,-999.0,73,-99.99,,,-99.99,,2013-01-07 00:43:00,
2013-01-06 19:53:00,37.0,29.0,30.23,NW,314,8.0,-999.0,73,-99.99,,,-99.99,,2013-01-07 00:53:00,
2013-01-06 20:02:00,37.0,28.0,30.23,NW,316,9.0,-999.0,71,-99.99,,,-99.99,,2013-01-07 01:02:00,
2013-01-06 20:12:00,37.0,28.0,30.23,NW,316,9.0,-999.0,71,-99.99,,,-99.99,,2013-01-07 01:12:00,
2013-01-06 20:23:00,36.0,28.0,30.24,WNW,297,8.0,-999.0,71,-99.99,,,-99.99,,2013-01-07 01:23:00,
2013-01-06 20:32:00,36.0,28.0,30.25,NNW,333,7.0,-999.0,71,-99.99,,,-99.99,,2013-01-07 01:32:00,
2013-01-06 20:42:00,36.0,28.0,30.25,NNW,333,7.0,-999.0,71,-99.99,,,-99.99,,2013-01-07 01:42:00,
2013-01-06 20:52:00,36.0,27.0,30.26,NW,319,6.0,-999.0,70,-99.99,,,-99.99,,2013-01-07 01:52:00,
2013-01-06 21:02:00,36.0,27.0,30.27,NW,321,8.0,-999.0,70,-99.99,,,-99.99,,2013-01-07 02:02:00,
2013-01-06 21:12:00,36.0,27.0,30.27,NW,321,8.0,-999.0,70,-99.99,,,-99.99,,2013-01-07 02:12:00,
2013-01-06 21:23:00,36.0,27.0,30.27,NW,309,6.0,-999.0,70,-99.99,,,-99.99,,2013-01-07 02:23:00,
2013-01-06 21:32:00,35.0,27.0,30.28,WNW,294,6.0,-999.0,71,-99.99,,,-99.99,,2013-01-07 02:32:00,
2013-01-06 21:42:00,35.0,27.0,30.28,WNW,294,6.0,-999.0,71,-99.99,,,-99.99,,2013-01-07 02:42:00,
2013-01-06 21:53:00,35.0,26.0,30.29,NNW,338,8.0,-999.0,69,-99.99,,,-99.99,,2013-01-07 02:53:00,
2013-01-06 22:02:00,35.0,26.0,30.30,NW,320,7.0,-999.0,69,-99.99,,,-99.99,,2013-01-07 03:02:00,
2013-01-06 22:12:00,35.0,26.0,30.30,NW,320,7.0,-999.0,69,-99.99,,,-99.99,,2013-01-07 03:12:00,
2013-01-06 22:22:00,34.0,25.0,30.31,NNW,336,6.0,-999.0,70,-99.99,,,-99.99,,2013-01-07 03:22:00,
2013-01-06 22:33:00,34.0,25.0,30.31,NW,308,7.0,-999.0,70,-99.99,,,-99.99,,2013-01-07 03:33:00,
2013-01-06 22:43:00,34.0,25.0,30.31,NW,308,7.0,-999.0,70,-99.99,,,-99.99,,2013-01-07 03:43:00,
2013-01-06 22:52:00,34.0,25.0,30.31,WNW,293,6.0,-999.0,69,-99.99,,,-99.99,,2013-01-07 03:52:00,
2013-01-06 23:02:00,33.0,24.0,30.32,NW,325,6.0,-999.0,70,-99.99,,,-99.99,,2013-01-07 04:02:00,
2013-01-06 23:12:00,33.0,24.0,30.32,NW,325,6.0,-999.0,70,-99.99,,,-99.99,,2013-01-07 04:12:00,
2013-01-06 23:22:00,33.0,24.0,30.32,NW,315,5.0,-999.0,70,-99.99,,,-99.99,,2013-01-07 04:22:00,
2013-01-06 23:33:00,33.0,25.0,30.32,NW,321,5.0,-999.0,71,-99.99,,,-99.99,,2013-01-07 04:33:00,
2013-01-06 23:42:00,33.0,25.0,30.32,NW,321,5.0,-999.0,71,-99.99,,,-99.99,,2013-01-07 04:42:00,
2013-01-06 23:52:00,32.0,24.0,30.33,NNW,344,3.0,-999.0,72,-99.99,,,-99.99,,2013-01-07 04:52:00,